DW6016 Weather Reports


time (UTC)temp
C
wind
direction
speed
KPH
gust
KPH
rain 1hr
cm
rain 24hr
cm
rain mn
cm
humidity
%
barometer
mb
20260510002912 25 293 3.2 4.8 0.00 0.00 0.00 29 1015.9
20260510002410 25 296 0.0 1.6 0.00 0.00 0.00 30 1016.0
20260510001906 25 306 0.0 0.0 0.00 0.00 0.00 32 1016.2
20260510001404 25 307 1.6 1.6 0.00 0.00 0.00 32 1016.0
20260510000900 25 306 1.6 1.6 0.00 0.00 0.00 31 1015.8
20260510000357 25 300 1.6 1.6 0.00 0.00 0.00 29 1016.0
20260509235853 25 307 1.6 1.6 0.00 0.00 0.00 31 1016.0
20260509235350 25 312 0.0 1.6 0.00 0.00 0.00 33 1016.1
20260509234846 25 309 3.2 3.2 0.00 0.00 0.00 29 1016.2
20260509234343 25 298 0.0 1.6 0.00 0.00 0.00 29 1016.1
20260509233842 25 303 0.0 0.0 0.00 0.00 0.00 30 1016.3
20260509233339 25 294 1.6 1.6 0.00 0.00 0.00 31 1016.3
20260509232834 25 313 0.0 0.0 0.00 0.00 0.00 29 1016.2
20260509232333 25 310 0.0 0.0 0.00 0.00 0.00 27 1016.2
20260509231828 25 293 0.0 0.0 0.00 0.00 0.00 31 1016.5
20260509231325 25 293 1.6 1.6 0.00 0.00 0.00 28 1016.5
20260509230823 25 306 0.0 1.6 0.00 0.00 0.00 31 1016.6
20260509230320 25 300 0.0 1.6 0.00 0.00 0.00 30 1016.6
20260509225815 25 296 0.0 1.6 0.00 0.00 0.00 33 1017.0
20260509225312 24 297 1.6 1.6 0.00 0.00 0.00 34 1016.8
20260509224808 25 298 3.2 3.2 0.00 0.00 0.00 31 1017.1
20260509224305 24 312 3.2 3.2 0.00 0.00 0.00 30 1017.1
20260509223801 24 347 0.0 1.6 0.00 0.00 0.00 30 1017.0
20260509223258 24 332 3.2 3.2 0.00 0.00 0.00 34 1017.1
20260509222755 24 293 4.8 4.8 0.00 0.00 0.00 33 1017.4
20260509222250 23 106 1.6 3.2 0.00 0.00 0.00 31 1017.4
20260509221746 23 283 3.2 3.2 0.00 0.00 0.00 29 1017.6
20260509221243 23 286 1.6 1.6 0.00 0.00 0.00 34 1017.7
20260509220739 23 318 0.0 1.6 0.00 0.00 0.00 36 1017.9
20260509220236 23 316 0.0 1.6 0.00 0.00 0.00 35 1017.6
20260509215731 23 299 1.6 1.6 0.00 0.00 0.00 37 1017.7
20260509215228 23 308 0.0 0.0 0.00 0.00 0.00 38 1017.8
20260509214725 23 307 4.8 4.8 0.00 0.00 0.00 39 1017.9
20260509214222 22 285 1.6 1.6 0.00 0.00 0.00 41 1017.9
20260509213719 22 296 3.2 3.2 0.00 0.00 0.00 41 1017.9
20260509213214 23 316 1.6 3.2 0.00 0.00 0.00 43 1018.4
20260509212712 22 321 1.6 3.2 0.00 0.00 0.00 44 1018.3
20260509212209 22 304 1.6 3.2 0.00 0.00 0.00 44 1018.3
20260509211705 22 311 1.6 1.6 0.00 0.00 0.00 47 1018.2
20260509211201 23 299 1.6 1.6 0.00 0.00 0.00 48 1018.0
20260509210658 22 300 1.6 3.2 0.00 0.00 0.00 47 1018.1
20260509210155 22 305 1.6 3.2 0.00 0.00 0.00 48 1018.3
20260509205650 22 149 3.2 4.8 0.00 0.00 0.00 46 1018.3
20260509205150 22 322 1.6 1.6 0.00 0.00 0.00 48 1018.2
20260509204646 22 257 0.0 1.6 0.00 0.00 0.00 51 1018.5
20260509204143 22 302 3.2 3.2 0.00 0.00 0.00 51 1018.4
20260509203639 22 278 1.6 1.6 0.00 0.00 0.00 53 1018.5
20260509203137 22 326 0.0 1.6 0.00 0.00 0.00 51 1018.7
20260509202637 22 289 1.6 1.6 0.00 0.00 0.00 50 1018.6
20260509202133 23 283 1.6 1.6 0.00 0.00 0.00 52 1018.7
20260509201628 23 328 0.0 1.6 0.00 0.00 0.00 50 1018.7
20260509201126 23 301 1.6 1.6 0.00 0.00 0.00 49 1018.8
20260509200621 23 19 1.6 3.2 0.00 0.00 0.00 51 1018.9
20260509200117 22 180 1.6 3.2 0.00 0.00 0.00 52 1018.8
20260509195613 22 291 3.2 3.2 0.00 0.00 0.00 56 1019.1
20260509195107 22 294 1.6 3.2 0.00 0.00 0.00 52 1019.1
20260509194607 21 291 1.6 1.6 0.00 0.00 0.00 53 1019.1
20260509194105 21 283 1.6 1.6 0.00 0.00 0.00 54 1019.0
20260509193601 21 276 0.0 1.6 0.00 0.00 0.00 57 1019.3
20260509193057 21 96 1.6 3.2 0.00 0.00 0.00 57 1019.6
20260509192553 21 302 1.6 1.6 0.00 0.00 0.00 54 1019.3
20260509192048 21 304 1.6 1.6 0.00 0.00 0.00 56 1019.6
20260509191542 21 89 3.2 3.2 0.00 0.00 0.00 58 1019.6
20260509191039 21 299 3.2 3.2 0.00 0.00 0.00 59 1019.6
20260509190536 21 295 1.6 3.2 0.00 0.00 0.00 60 1019.7
20260509190034 21 282 4.8 4.8 0.00 0.00 0.00 58 1019.8
20260509185531 21 252 1.6 1.6 0.00 0.00 0.00 58 1019.8
20260509185027 20 292 1.6 1.6 0.00 0.00 0.00 60 1019.9
20260509184526 20 281 1.6 3.2 0.00 0.00 0.00 60 1020.0
20260509184022 20 305 1.6 1.6 0.00 0.00 0.00 61 1020.1
20260509183517 20 279 1.6 1.6 0.00 0.00 0.00 60 1020.1
20260509183013 21 272 1.6 1.6 0.00 0.00 0.00 59 1020.3
20260509182510 20 100 0.0 1.6 0.00 0.00 0.00 60 1020.2
20260509182007 20 284 1.6 1.6 0.00 0.00 0.00 63 1020.2
20260509181505 20 310 0.0 1.6 0.00 0.00 0.00 63 1020.3
20260509181002 19 313 0.0 1.6 0.00 0.00 0.00 63 1020.4
20260509180457 19 136 1.6 1.6 0.00 0.00 0.00 63 1020.3
20260509175955 19 289 0.0 1.6 0.00 0.00 0.00 64 1020.4
20260509175451 18 292 1.6 1.6 0.00 0.00 0.00 67 1020.4
20260509174947 18 283 0.0 0.0 0.00 0.00 0.00 69 1020.3
20260509174443 18 298 1.6 1.6 0.00 0.00 0.00 66 1020.5
20260509173938 18 290 3.2 3.2 0.00 0.00 0.00 68 1020.7
20260509173433 17 298 0.0 1.6 0.00 0.00 0.00 70 1020.8
20260509172930 17 298 1.6 1.6 0.00 0.00 0.00 69 1020.8
20260509172427 17 301 0.0 1.6 0.00 0.00 0.00 71 1020.8
20260509171922 17 296 1.6 1.6 0.00 0.00 0.00 71 1021.0
20260509171418 17 110 1.6 3.2 0.00 0.00 0.00 69 1021.1
20260509170914 17 330 0.0 1.6 0.00 0.00 0.00 70 1021.1
20260509170411 17 291 0.0 0.0 0.00 0.00 0.00 71 1021.1
20260509165907 17 323 0.0 1.6 0.00 0.00 0.00 72 1021.1
20260509165401 16 274 1.6 3.2 0.00 0.00 0.00 75 1021.2
20260509164857 16 152 3.2 3.2 0.00 0.00 0.00 73 1021.5
20260509164353 16 300 1.6 1.6 0.00 0.00 0.00 73 1021.4
20260509163849 16 300 1.6 1.6 0.00 0.00 0.00 75 1021.4
20260509163346 16 31 1.6 1.6 0.00 0.00 0.00 74 1021.5
20260509162845 16 269 1.6 3.2 0.00 0.00 0.00 74 1021.9
20260509162344 16 301 1.6 3.2 0.00 0.00 0.00 75 1022.0
20260509161840 16 301 1.6 3.2 0.00 0.00 0.00 74 1021.5
20260509161337 16 169 1.6 3.2 0.00 0.00 0.00 74 1022.2
20260509160832 16 312 1.6 1.6 0.00 0.00 0.00 74 1022.0
20260509160329 16 309 0.0 1.6 0.00 0.00 0.00 75 1022.2
20260509155824 16 298 0.0 1.6 0.00 0.00 0.00 78 1021.9
20260509155320 15 301 1.6 1.6 0.00 0.00 0.00 77 1022.1
20260509154817 15 155 3.2 3.2 0.00 0.00 0.00 76 1021.8
20260509154313 15 308 0.0 0.0 0.00 0.00 0.00 78 1021.9
20260509153810 14 312 0.0 0.0 0.00 0.00 0.00 81 1022.0
20260509153307 15 113 0.0 1.6 0.00 0.00 0.00 79 1022.1
20260509152804 15 326 0.0 0.0 0.00 0.00 0.00 79 1022.2
20260509152259 15 291 0.0 0.0 0.00 0.00 0.00 80 1022.4
20260509151757 14 308 1.6 3.2 0.00 0.00 0.00 80 1022.4
20260509151253 14 313 0.0 0.0 0.00 0.00 0.00 82 1022.5
20260509150752 13 107 3.2 3.2 0.00 0.00 0.00 82 1022.5
20260509150250 13 329 0.0 0.0 0.00 0.00 0.00 84 1022.7
20260509145746 13 295 1.6 1.6 0.00 0.00 0.00 85 1022.6
20260509145246 13 339 1.6 3.2 0.00 0.00 0.00 85 1022.4
20260509144743 12 306 1.6 1.6 0.00 0.00 0.00 88 1022.5
20260509144239 12 330 0.0 1.6 0.00 0.00 0.00 88 1022.4
20260509143737 12 330 0.0 1.6 0.00 0.00 0.00 89 1022.2
20260509143234 12 94 3.2 3.2 0.00 0.00 0.00 89 1022.3
20260509142730 11 322 1.6 1.6 0.00 0.00 0.00 95 1022.5
20260509142226 11 309 0.0 0.0 0.00 0.00 0.00 99 1022.5
20260509141722 11 308 0.0 0.0 0.00 0.00 0.00 99 1022.4
20260509141220 10 317 0.0 0.0 0.00 0.00 0.00 99 1022.4
20260509140716 10 317 0.0 0.0 0.00 0.00 0.00 99 1022.4
20260509140213 10 306 0.0 0.0 0.00 0.00 0.00 99 1022.6
20260509135710 9 299 0.0 0.0 0.00 0.00 0.00 99 1022.4
20260509135209 8 299 0.0 0.0 0.00 0.00 0.00 99 1022.4
20260509134705 8 298 0.0 0.0 0.00 0.00 0.00 99 1022.3
20260509134202 8 298 0.0 0.0 0.00 0.00 0.00 99 1022.2
20260509133659 8 298 0.0 0.0 0.00 0.00 0.00 99 1022.2
20260509133156 8 298 0.0 0.0 0.00 0.00 0.00 99 1022.3
20260509132655 7 298 0.0 0.0 0.00 0.00 0.00 99 1022.2
20260509132153 7 298 0.0 0.0 0.00 0.00 0.00 99 1022.1
20260509131649 7 298 0.0 0.0 0.00 0.00 0.00 99 1022.2
20260509131146 7 298 0.0 0.0 0.00 0.00 0.00 99 1022.2
20260509130641 7 298 0.0 0.0 0.00 0.00 0.00 99 1022.3
20260509130138 7 298 0.0 0.0 0.00 0.00 0.00 99 1022.0
20260509125635 7 298 0.0 0.0 0.00 0.00 0.00 99 1022.2
20260509125131 7 298 0.0 0.0 0.00 0.00 0.00 99 1022.0
20260509124628 7 298 0.0 0.0 0.00 0.00 0.00 99 1022.3
20260509124125 7 298 0.0 0.0 0.00 0.00 0.00 99 1022.3
20260509123623 7 298 0.0 0.0 0.00 0.00 0.00 99 1022.5
20260509123120 7 298 0.0 0.0 0.00 0.00 0.00 99 1022.2
20260509122615 7 298 0.0 0.0 0.00 0.00 0.00 99 1022.4
20260509122113 7 298 0.0 0.0 0.00 0.00 0.00 99 1022.3
20260509121609 7 298 0.0 0.0 0.00 0.00 0.00 99 1022.2
20260509121107 7 298 0.0 0.0 0.00 0.00 0.00 99 1022.3
20260509120605 7 298 0.0 0.0 0.00 0.00 0.00 99 1022.2
20260509115600 7 298 0.0 0.0 0.00 0.00 0.00 99 1022.4
20260509115057 7 298 0.0 0.0 0.00 0.00 0.00 99 1022.6
20260509114555 7 298 0.0 0.0 0.00 0.00 0.00 99 1022.4
20260509114054 7 298 0.0 0.0 0.00 0.00 0.00 99 1022.4
20260509113552 8 298 0.0 0.0 0.00 0.00 0.00 99 1022.1
20260509113049 8 298 0.0 0.0 0.00 0.00 0.00 99 1022.3
20260509112545 8 298 0.0 0.0 0.00 0.00 0.00 99 1022.6
20260509112042 8 298 0.0 0.0 0.00 0.00 0.00 99 1022.7
20260509111540 8 298 0.0 0.0 0.00 0.00 0.00 99 1022.5
20260509111037 8 298 0.0 0.0 0.00 0.00 0.00 99 1022.7
20260509110533 8 298 0.0 0.0 0.00 0.00 0.00 99 1022.7
20260509110031 8 298 0.0 0.0 0.00 0.00 0.00 99 1022.8
20260509105529 8 298 0.0 0.0 0.00 0.00 0.00 99 1022.7
20260509105026 8 298 0.0 0.0 0.00 0.00 0.00 99 1022.7
20260509104523 8 298 0.0 0.0 0.00 0.00 0.00 99 1023.0
20260509104020 8 298 0.0 0.0 0.00 0.00 0.00 98 1022.9
20260509103518 8 298 0.0 0.0 0.00 0.00 0.00 98 1022.6
20260509103016 8 298 0.0 0.0 0.00 0.00 0.00 98 1022.8
20260509102513 8 298 0.0 0.0 0.00 0.00 0.00 97 1022.8
20260509102009 8 298 0.0 0.0 0.00 0.00 0.00 97 1022.6
20260509101506 9 298 0.0 0.0 0.00 0.00 0.00 96 1022.7
20260509101003 9 298 0.0 0.0 0.00 0.00 0.00 96 1022.8
20260509100500 9 298 0.0 0.0 0.00 0.00 0.00 95 1022.7
20260509095956 10 298 0.0 0.0 0.00 0.00 0.00 95 1022.9
20260509095453 10 298 0.0 0.0 0.00 0.00 0.00 95 1023.0
20260509094951 10 297 0.0 0.0 0.00 0.00 0.00 95 1022.7
20260509094447 10 303 0.0 0.0 0.00 0.00 0.00 95 1022.9
20260509093944 10 305 0.0 0.0 0.00 0.00 0.00 95 1023.1
20260509093442 10 311 0.0 0.0 0.00 0.00 0.00 95 1022.9
20260509092940 10 301 0.0 0.0 0.00 0.00 0.00 95 1022.9
20260509092438 10 311 0.0 0.0 0.00 0.00 0.00 96 1022.9
20260509091936 10 315 0.0 0.0 0.00 0.00 0.00 96 1023.1
20260509091432 10 315 0.0 0.0 0.00 0.00 0.00 95 1023.3
20260509090930 10 315 0.0 0.0 0.00 0.00 0.00 95 1023.1
20260509090427 10 323 0.0 1.6 0.00 0.00 0.00 96 1023.2
20260509085925 10 311 0.0 0.0 0.00 0.00 0.00 95 1023.2
20260509085421 10 312 0.0 0.0 0.00 0.00 0.00 94 1023.4
20260509084917 10 312 0.0 0.0 0.00 0.00 0.00 94 1023.2
20260509084414 10 312 0.0 0.0 0.00 0.00 0.00 93 1023.2
20260509083912 10 312 0.0 0.0 0.00 0.00 0.00 92 1023.3
20260509083409 10 312 0.0 0.0 0.00 0.00 0.00 92 1023.4
20260509082906 10 312 0.0 0.0 0.00 0.00 0.00 92 1023.3
20260509082403 10 312 0.0 0.0 0.00 0.00 0.00 92 1023.3
20260509081859 11 311 0.0 0.0 0.00 0.00 0.00 91 1023.3
20260509081357 11 312 0.0 0.0 0.00 0.00 0.00 90 1023.5
20260509080854 11 312 0.0 0.0 0.00 0.00 0.00 89 1023.6
20260509080352 11 312 0.0 0.0 0.00 0.00 0.00 89 1023.6
20260509075850 11 312 0.0 1.6 0.00 0.00 0.00 88 1023.6
20260509075347 11 312 0.0 0.0 0.00 0.00 0.00 87 1023.7
20260509074844 12 304 0.0 0.0 0.00 0.00 0.00 87 1023.5
20260509074342 12 314 0.0 1.6 0.00 0.00 0.00 86 1023.5
20260509073838 12 290 0.0 1.6 0.00 0.00 0.00 87 1023.9
20260509073334 12 305 0.0 0.0 0.00 0.00 0.00 87 1023.5
20260509072831 12 303 0.0 0.0 0.00 0.00 0.00 87 1023.8
20260509072327 12 307 0.0 1.6 0.00 0.00 0.00 87 1023.6
20260509071824 12 308 0.0 0.0 0.00 0.00 0.00 86 1023.6
20260509071321 12 308 0.0 0.0 0.00 0.00 0.00 85 1023.6
20260509070819 12 308 0.0 0.0 0.00 0.00 0.00 85 1023.6
20260509070315 12 309 0.0 0.0 0.00 0.00 0.00 84 1023.5
20260509065811 12 309 0.0 0.0 0.00 0.00 0.00 82 1023.7
20260509065308 13 309 0.0 0.0 0.00 0.00 0.00 81 1023.7
20260509064804 13 315 0.0 0.0 0.00 0.00 0.00 81 1023.6
20260509064301 13 302 0.0 0.0 0.00 0.00 0.00 80 1023.6
20260509063759 13 322 1.6 1.6 0.00 0.00 0.00 80 1023.8
20260509063255 13 302 0.0 1.6 0.00 0.00 0.00 80 1023.6
20260509062752 13 304 0.0 0.0 0.00 0.00 0.00 80 1023.6
20260509062249 13 301 1.6 1.6 0.00 0.00 0.00 79 1023.6
20260509061746 13 300 0.0 0.0 0.00 0.00 0.00 78 1023.6
20260509061244 13 296 0.0 1.6 0.00 0.00 0.00 77 1023.5
20260509060741 14 16 1.6 3.2 0.00 0.00 0.00 77 1023.5
20260509060237 14 312 0.0 1.6 0.00 0.00 0.00 76 1023.3
20260509055733 14 295 0.0 1.6 0.00 0.00 0.00 76 1023.3
20260509055229 14 311 0.0 0.0 0.00 0.00 0.00 75 1023.5
20260509054726 15 314 0.0 0.0 0.00 0.00 0.00 74 1023.4
20260509054223 15 318 0.0 0.0 0.00 0.00 0.00 74 1023.4
20260509053722 15 301 0.0 0.0 0.00 0.00 0.00 73 1023.3
20260509053218 15 304 0.0 1.6 0.00 0.00 0.00 73 1023.5
20260509052716 15 315 0.0 0.0 0.00 0.00 0.00 73 1023.5
20260509052213 15 303 0.0 0.0 0.00 0.00 0.00 72 1023.3
20260509051711 15 291 0.0 0.0 0.00 0.00 0.00 73 1023.3
20260509051209 15 300 0.0 0.0 0.00 0.00 0.00 72 1023.3
20260509050705 15 299 0.0 0.0 0.00 0.00 0.00 72 1023.4
20260509050202 15 311 0.0 0.0 0.00 0.00 0.00 71 1023.2
20260509045659 15 297 0.0 1.6 0.00 0.00 0.00 71 1023.2
20260509045156 16 301 0.0 0.0 0.00 0.00 0.00 71 1023.2
20260509044653 16 296 0.0 1.6 0.00 0.00 0.00 70 1022.8
20260509044150 16 308 0.0 0.0 0.00 0.00 0.00 69 1023.0
20260509043647 16 300 0.0 0.0 0.00 0.00 0.00 69 1023.0
20260509043142 16 312 1.6 1.6 0.00 0.00 0.00 68 1022.8
20260509042639 16 329 6.4 8.0 0.00 0.00 0.00 68 1022.8
20260509042135 16 306 0.0 1.6 0.00 0.00 0.00 68 1022.7
20260509041632 16 299 0.0 1.6 0.00 0.00 0.00 67 1022.9
20260509041130 16 318 0.0 1.6 0.00 0.00 0.00 66 1022.8
20260509040628 17 278 1.6 1.6 0.00 0.00 0.00 66 1022.8
20260509040125 17 301 0.0 0.0 0.00 0.00 0.00 65 1022.5
20260509035621 17 331 1.6 1.6 0.00 0.00 0.00 65 1022.5
20260509035118 17 306 0.0 0.0 0.00 0.00 0.00 65 1022.6
20260509034616 17 280 0.0 1.6 0.00 0.00 0.00 64 1022.5
20260509034113 17 303 0.0 0.0 0.00 0.00 0.00 64 1022.2
20260509033609 17 293 1.6 1.6 0.00 0.00 0.00 64 1022.4
20260509033106 17 28 1.6 1.6 0.00 0.00 0.00 62 1022.3
20260509032604 17 230 1.6 3.2 0.00 0.00 0.00 61 1022.2
20260509032101 17 299 1.6 8.0 0.00 0.00 0.00 62 1021.9
20260509031559 17 292 0.0 0.0 0.00 0.00 0.00 62 1022.1
20260509031056 17 297 0.0 1.6 0.00 0.00 0.00 61 1022.2
20260509030554 17 298 0.0 0.0 0.00 0.00 0.00 61 1022.0
20260509030050 18 299 0.0 0.0 0.00 0.00 0.00 60 1022.0
20260509025546 18 303 4.8 4.8 0.00 0.00 0.00 59 1022.2
20260509025042 18 301 0.0 1.6 0.00 0.00 0.00 58 1022.0
20260509024538 18 290 0.0 1.6 0.00 0.00 0.00 58 1021.9
20260509024034 18 293 0.0 0.0 0.00 0.00 0.00 57 1022.1
20260509023532 18 293 1.6 1.6 0.00 0.00 0.00 56 1021.9
20260509023029 18 275 0.0 0.0 0.00 0.00 0.00 57 1021.9
20260509022525 18 294 0.0 1.6 0.00 0.00 0.00 56 1021.9
20260509022023 18 297 1.6 1.6 0.00 0.00 0.00 56 1021.9
20260509021520 18 304 0.0 0.0 0.00 0.00 0.00 56 1021.9
20260509021017 18 304 0.0 0.0 0.00 0.00 0.00 55 1022.1
20260509020516 18 302 0.0 0.0 0.00 0.00 0.00 56 1022.0
20260509020012 19 303 1.6 1.6 0.00 0.00 0.00 55 1021.9
20260509015511 19 295 1.6 1.6 0.00 0.00 0.00 54 1021.9
20260509015008 19 310 0.0 1.6 0.00 0.00 0.00 55 1021.8
20260509014504 19 299 0.0 0.0 0.00 0.00 0.00 55 1021.8
20260509014001 19 315 0.0 0.0 0.00 0.00 0.00 55 1021.8
20260509013458 19 337 1.6 1.6 0.00 0.00 0.00 54 1021.8
20260509012953 18 293 0.0 0.0 0.00 0.00 0.00 54 1021.6
20260509012450 19 292 0.0 0.0 0.00 0.00 0.00 56 1021.9
20260509011947 19 304 0.0 0.0 0.00 0.00 0.00 54 1021.9
20260509011444 18 304 0.0 1.6 0.00 0.00 0.00 55 1021.9
20260509010942 18 304 0.0 0.0 0.00 0.00 0.00 56 1022.1
20260509010440 19 303 0.0 0.0 0.00 0.00 0.00 53 1022.0
20260509005936 19 324 0.0 0.0 0.00 0.00 0.00 53 1022.0
20260509005435 19 120 3.2 4.8 0.00 0.00 0.00 54 1021.9
20260509004934 19 308 0.0 0.0 0.00 0.00 0.00 54 1022.0
20260509004431 19 308 0.0 0.0 0.00 0.00 0.00 52 1022.2
20260509003929 19 297 0.0 1.6 0.00 0.00 0.00 55 1022.0
20260509003427 20 300 0.0 1.6 0.00 0.00 0.00 52 1022.3